| time (UTC) | temp F | wind direction | speed MPH | gust MPH | rain 1hr in | rain 24hr in | rain mn in | humidity % | barometer mb |
| 20260505072627 | 57 | 245 | 0.0 | 2.0 | 0.00 | 0.01 | 0.00 | 81 | 1008.1 |
| 20260505071627 | 57 | 245 | 0.0 | 2.0 | 0.00 | 0.01 | 0.00 | 80 | 1008.2 |
| 20260505070627 | 57 | 245 | 0.0 | 2.0 | 0.00 | 0.01 | 0.00 | 80 | 1008.2 |
| 20260505065627 | 56 | 245 | 0.0 | 0.0 | 0.00 | 0.01 | 0.00 | 82 | 1008.4 |
| 20260505064627 | 55 | 245 | 1.0 | 1.0 | 0.00 | 0.01 | 0.00 | 83 | 1008.5 |
| 20260505063626 | 54 | 245 | 0.0 | 0.0 | 0.00 | 0.01 | 0.00 | 87 | 1008.6 |
| 20260505062626 | 52 | 245 | 0.0 | 2.0 | 0.00 | 0.01 | 0.00 | 88 | 1008.7 |
| 20260505061626 | 51 | 245 | 1.0 | 3.0 | 0.00 | 0.01 | 0.00 | 88 | 1008.8 |
| 20260505060626 | 50 | 343 | 0.0 | 0.0 | 0.00 | 0.01 | 0.00 | 91 | 1008.7 |
| 20260505055626 | 49 | 343 | 0.0 | 0.0 | 0.00 | 0.01 | 0.00 | 90 | 1008.7 |
| 20260505054626 | 49 | 343 | 0.0 | 0.0 | 0.00 | 0.01 | 0.00 | 90 | 1008.7 |
| 20260505053626 | 49 | 343 | 0.0 | 0.0 | 0.00 | 0.01 | 0.00 | 91 | 1008.6 |
| 20260505052626 | 48 | 343 | 0.0 | 0.0 | 0.00 | 0.01 | 0.00 | 92 | 1008.6 |
| 20260505051628 | 48 | 343 | 0.0 | 0.0 | 0.00 | 0.01 | 0.00 | 93 | 1008.7 |
| 20260505050627 | 47 | 343 | 0.0 | 0.0 | 0.00 | 0.01 | 0.00 | 92 | 1008.7 |
| 20260505041626 | 46 | 343 | 0.0 | 0.0 | 0.00 | 0.01 | 0.00 | 92 | 1008.9 |
| 20260505040626 | 46 | 344 | 0.0 | 0.0 | 0.00 | 0.01 | 0.00 | 91 | 1008.9 |
| 20260505035627 | 47 | 344 | 0.0 | 0.0 | 0.00 | 0.01 | 0.00 | 91 | 1008.9 |
| 20260505034627 | 47 | 344 | 0.0 | 0.0 | 0.00 | 0.01 | 0.00 | 91 | 1009.0 |
| 20260505033627 | 47 | 344 | 0.0 | 0.0 | 0.00 | 0.01 | 0.00 | 91 | 1009.0 |
| 20260505032627 | 47 | 344 | 0.0 | 0.0 | 0.00 | 0.01 | 0.00 | 91 | 1009.0 |
| 20260505031627 | 47 | 344 | 0.0 | 0.0 | 0.00 | 0.01 | 0.00 | 91 | 1009.1 |
| 20260505030626 | 47 | 344 | 0.0 | 0.0 | 0.00 | 0.01 | 0.00 | 90 | 1009.0 |
| 20260505025627 | 48 | 344 | 0.0 | 0.0 | 0.00 | 0.01 | 0.00 | 91 | 1009.2 |
| 20260505024626 | 48 | 344 | 0.0 | 0.0 | 0.00 | 0.01 | 0.00 | 90 | 1009.3 |
| 20260505023626 | 48 | 344 | 0.0 | 0.0 | 0.00 | 0.01 | 0.00 | 90 | 1009.3 |
| 20260505022627 | 48 | 344 | 0.0 | 0.0 | 0.00 | 0.01 | 0.00 | 90 | 1009.5 |
| 20260505021627 | 48 | 344 | 0.0 | 0.0 | 0.00 | 0.01 | 0.00 | 89 | 1009.7 |
| 20260505020627 | 49 | 344 | 0.0 | 0.0 | 0.00 | 0.01 | 0.00 | 89 | 1009.7 |
| 20260505015627 | 49 | 344 | 0.0 | 0.0 | 0.00 | 0.01 | 0.00 | 89 | 1009.8 |
| 20260505014627 | 49 | 344 | 0.0 | 0.0 | 0.00 | 0.01 | 0.00 | 89 | 1010.0 |
| 20260505013627 | 49 | 344 | 0.0 | 0.0 | 0.00 | 0.01 | 0.00 | 89 | 1010.0 |
| 20260505012627 | 50 | 344 | 0.0 | 0.0 | 0.00 | 0.01 | 0.00 | 89 | 1010.1 |
| 20260505011627 | 50 | 344 | 0.0 | 0.0 | 0.00 | 0.01 | 0.00 | 89 | 1010.2 |
| 20260505010627 | 50 | 344 | 0.0 | 0.0 | 0.00 | 0.01 | 0.00 | 88 | 1010.3 |
| 20260505005627 | 50 | 344 | 0.0 | 0.0 | 0.00 | 0.01 | 0.00 | 89 | 1010.3 |
| 20260505004627 | 51 | 344 | 0.0 | 0.0 | 0.00 | 0.01 | 0.00 | 88 | 1010.4 |
| 20260505003627 | 51 | 344 | 0.0 | 0.0 | 0.00 | 0.01 | 0.00 | 88 | 1010.6 |
| 20260505002627 | 51 | 344 | 0.0 | 0.0 | 0.00 | 0.01 | 0.00 | 88 | 1010.5 |
| 20260505001626 | 51 | 344 | 0.0 | 0.0 | 0.00 | 0.01 | 0.00 | 88 | 1010.5 |
| 20260505000626 | 51 | 344 | 0.0 | 0.0 | 0.00 | 0.01 | 0.00 | 88 | 1010.6 |
| 20260504235626 | 52 | 344 | 0.0 | 0.0 | 0.00 | 0.01 | 0.00 | 88 | 1010.6 |
| 20260504234626 | 52 | 344 | 0.0 | 1.0 | 0.00 | 0.01 | 0.00 | 87 | 1010.5 |
| 20260504233626 | 52 | 344 | 0.0 | 1.0 | 0.00 | 0.01 | 0.00 | 87 | 1010.7 |
| 20260504232626 | 52 | 344 | 0.0 | 0.0 | 0.00 | 0.01 | 0.00 | 87 | 1010.7 |
| 20260504231626 | 53 | 344 | 0.0 | 1.0 | 0.00 | 0.01 | 0.00 | 86 | 1010.7 |
| 20260504230625 | 53 | 344 | 0.0 | 2.0 | 0.00 | 0.01 | 0.00 | 86 | 1010.7 |
| 20260504225625 | 53 | 344 | 0.0 | 1.0 | 0.00 | 0.01 | 0.00 | 85 | 1010.7 |
| 20260504224627 | 54 | 344 | 0.0 | 0.0 | 0.00 | 0.01 | 0.00 | 85 | 1010.8 |
| 20260504223627 | 54 | 344 | 0.0 | 0.0 | 0.00 | 0.01 | 0.00 | 84 | 1010.7 |
| 20260504222627 | 55 | 344 | 0.0 | 0.0 | 0.00 | 0.01 | 0.00 | 84 | 1010.6 |
| 20260504221627 | 55 | 344 | 0.0 | 0.0 | 0.00 | 0.01 | 0.00 | 84 | 1010.8 |
| 20260504220627 | 55 | 344 | 0.0 | 1.0 | 0.00 | 0.01 | 0.00 | 83 | 1010.7 |
| 20260504215627 | 55 | 344 | 0.0 | 1.0 | 0.00 | 0.01 | 0.01 | 83 | 1010.9 |
| 20260504214627 | 55 | 344 | 0.0 | 0.0 | 0.00 | 0.01 | 0.01 | 82 | 1010.9 |
| 20260504213627 | 55 | 344 | 0.0 | 1.0 | 0.00 | 0.01 | 0.01 | 82 | 1011.0 |
| 20260504212626 | 56 | 344 | 0.0 | 0.0 | 0.00 | 0.01 | 0.01 | 82 | 1011.0 |
| 20260504211626 | 56 | 344 | 0.0 | 1.0 | 0.00 | 0.01 | 0.01 | 82 | 1011.0 |
| 20260504210626 | 56 | 344 | 0.0 | 1.0 | 0.00 | 0.01 | 0.01 | 81 | 1011.1 |
| 20260504205626 | 57 | 344 | 1.0 | 1.0 | 0.00 | 0.01 | 0.01 | 80 | 1011.1 |
| 20260504204626 | 57 | 344 | 0.0 | 2.0 | 0.00 | 0.01 | 0.01 | 80 | 1011.1 |
| 20260504203626 | 58 | 344 | 1.0 | 2.0 | 0.00 | 0.01 | 0.01 | 79 | 1011.1 |
| 20260504202626 | 58 | 339 | 0.0 | 3.0 | 0.00 | 0.01 | 0.01 | 78 | 1011.1 |
| 20260504201626 | 59 | 349 | 1.0 | 2.0 | 0.00 | 0.01 | 0.01 | 77 | 1011.2 |
| 20260504200626 | 59 | 357 | 0.0 | 4.0 | 0.00 | 0.01 | 0.01 | 76 | 1011.2 |
| 20260504195626 | 59 | 350 | 1.0 | 3.0 | 0.00 | 0.01 | 0.01 | 76 | 1011.0 |
| 20260504194625 | 60 | 347 | 1.0 | 1.0 | 0.00 | 0.01 | 0.01 | 77 | 1011.3 |
| 20260504193625 | 61 | 347 | 0.0 | 2.0 | 0.01 | 0.01 | 0.01 | 75 | 1011.2 |
| 20260504192625 | 61 | 347 | 1.0 | 3.0 | 0.01 | 0.01 | 0.01 | 74 | 1011.1 |
| 20260504191825 | 62 | 347 | 1.0 | 3.0 | 0.01 | 0.01 | 0.01 | 74 | 1011.1 |
| 20260504190825 | 62 | 320 | 0.0 | 3.0 | 0.01 | 0.01 | 0.01 | 73 | 1011.0 |
| 20260504190503 | 62 | 308 | 1.0 | 3.0 | 0.01 | 0.01 | 0.01 | 71 | 1011.0 |
| 20260504185503 | 63 | 34 | 0.0 | 1.0 | 0.01 | 0.01 | 0.01 | 72 | 1010.9 |
| 20260504184502 | 65 | 10 | 1.0 | 3.0 | 0.01 | 0.01 | 0.01 | 65 | 1010.8 |
| 20260504183503 | 67 | 276 | 0.0 | 4.0 | 0.00 | 0.00 | 0.00 | 58 | 1010.8 |
| 20260504182503 | 67 | 360 | 1.0 | 2.0 | 0.00 | 0.00 | 0.00 | 56 | 1010.4 |
| 20260504181503 | 67 | 39 | 0.0 | 1.0 | 0.00 | 0.00 | 0.00 | 55 | 1010.3 |
| 20260504180503 | 68 | 39 | 0.0 | 0.0 | 0.00 | 0.00 | 0.00 | 53 | 1010.3 |
| 20260504175503 | 68 | 39 | 0.0 | 0.0 | 0.00 | 0.00 | 0.00 | 53 | 1010.3 |
| 20260504174503 | 69 | 39 | 0.0 | 0.0 | 0.00 | 0.00 | 0.00 | 53 | 1010.3 |
| 20260504173503 | 69 | 39 | 0.0 | 0.0 | 0.00 | 0.00 | 0.00 | 52 | 1010.2 |
| 20260504172503 | 70 | 39 | 0.0 | 0.0 | 0.00 | 0.00 | 0.00 | 51 | 1010.2 |
| 20260504171502 | 70 | 39 | 0.0 | 3.0 | 0.00 | 0.00 | 0.00 | 51 | 1010.2 |
| 20260504170502 | 70 | 39 | 0.0 | 0.0 | 0.00 | 0.00 | 0.00 | 51 | 1010.2 |
| 20260504150504 | 72 | 62 | 1.0 | 7.0 | 0.00 | 0.00 | 0.00 | 49 | 1010.2 |
| 20260504140503 | 73 | 52 | 2.0 | 5.0 | 0.00 | 0.00 | 0.00 | 46 | 1010.5 |
| 20260504130502 | 72 | 52 | 3.0 | 6.0 | 0.00 | 0.00 | 0.00 | 48 | 1011.0 |
| 20260504110505 | 70 | 335 | 1.0 | 3.0 | 0.00 | 0.00 | 0.00 | 48 | 1011.9 |
| 20260504100504 | 69 | 60 | 1.0 | 4.0 | 0.00 | 0.00 | 0.00 | 51 | 1012.6 |
| 20260504081505 | 65 | 148 | 0.0 | 3.0 | 0.00 | 0.00 | 0.00 | 57 | 1013.6 |
| 20260504080505 | 66 | 147 | 0.0 | 3.0 | 0.00 | 0.00 | 0.00 | 56 | 1013.8 |